PST,Max TemperatureF,Mean TemperatureF,Min TemperatureF,Max Dew PointF,MeanDew PointF,Min DewpointF,Max Humidity, Mean Humidity, Min Humidity, Max Sea Level PressureIn, Mean Sea Level PressureIn, Min Sea Level PressureIn, Max VisibilityMiles, Mean VisibilityMiles, Min VisibilityMiles, Max Wind SpeedMPH, Mean Wind SpeedMPH, Max Gust SpeedMPH,PrecipitationIn, CloudCover, Events, WindDirDegrees
2013-2-1,72,56,41,46,40,33,89,54,24,30.22,30.16,30.12,10,10,10,7,2,,0.00,0,,347
2013-2-2,73,60,48,44,41,36,77,52,26,30.26,30.18,30.11,10,10,10,7,2,,0.00,0,,358
2013-2-3,73,65,55,50,43,37,75,48,26,30.10,30.03,29.96,10,10,10,10,4,,0.00,3,Rain,324
2013-2-4,75,62,50,45,40,30,77,48,19,30.06,29.99,29.93,10,10,10,10,3,,0.00,0,,336
2013-2-5,73,60,48,44,38,32,74,50,21,30.02,29.94,29.87,10,10,10,8,3,,0.00,0,,241
2013-2-6,73,62,51,42,39,31,63,46,21,30.01,29.92,29.85,10,10,10,7,1,,0.00,0,,292
2013-2-7,73,59,45,38,33,24,71,40,17,30.08,29.97,29.83,10,10,10,13,4,,0.00,0,,191
2013-2-8,64,57,48,37,32,26,59,41,25,29.90,29.84,29.81,10,10,10,28,16,38,0.00,2,,228
2013-2-9,61,52,42,34,28,22,67,44,22,30.02,29.93,29.83,10,10,10,18,8,22,0.00,0,,222
2013-2-10,61,49,37,34,30,25,79,50,25,30.04,29.99,29.93,10,10,10,9,2,,0.00,0,,205
2013-2-11,61,52,44,36,21,8,66,34,13,30.21,30.09,29.99,10,10,10,21,8,25,0.00,2,,346
2013-2-12,62,50,39,22,15,8,43,27,12,30.34,30.26,30.22,10,10,10,14,6,20,0.00,0,,337
2013-2-13,69,53,37,29,23,17,52,34,17,30.25,30.17,30.10,10,10,10,13,4,16,0.00,0,,312
2013-2-14,77,60,42,31,26,21,58,32,13,30.18,30.12,30.04,10,10,10,20,7,24,0.00,0,,348
2013-2-15,75,65,53,30,22,18,31,22,11,30.27,30.21,30.15,10,10,10,16,11,23,0.00,0,,4
2013-2-16,78,62,46,24,19,11,39,23,8,30.24,30.10,29.94,10,10,10,10,6,,0.00,0,,352
2013-2-17,75,59,43,31,23,18,45,28,13,29.94,29.87,29.80,10,10,10,13,3,,0.00,0,,166
2013-2-18,73,59,45,32,29,22,53,34,16,30.02,29.92,29.85,10,10,10,7,4,,0.00,0,,10
2013-2-19,66,56,46,37,32,29,54,42,25,29.84,29.74,29.65,10,10,10,28,8,33,0.00,0,,215
2013-2-20,55,49,42,41,34,25,80,57,31,29.91,29.75,29.62,10,10,10,24,13,30,0.01,3,Rain,272
2013-2-21,61,48,36,37,32,26,86,56,30,30.06,29.98,29.92,10,10,10,15,4,,0.00,1,,10
2013-2-22,64,50,37,31,25,19,73,40,17,30.19,30.13,30.06,10,10,10,9,4,,0.00,0,,335
2013-2-23,72,54,36,32,24,12,62,33,14,30.12,29.94,29.77,10,10,10,30,7,39,0.00,0,,226
2013-2-24,64,56,45,11,8,4,24,15,9,30.17,30.09,29.95,10,10,9,30,19,43,0.00,0,,351
2013-2-25,66,54,42,20,15,8,38,23,10,30.25,30.14,30.02,10,10,10,10,6,,0.00,0,,1
2013-2-26,70,54,37,20,13,7,46,22,9,30.16,30.05,29.99,10,10,10,26,9,38,0.00,0,,350
2013-2-27,68,59,50,11,5,-2,21,13,7,30.30,30.23,30.16,10,10,10,20,12,24,0.00,0,,357
2013-2-28,75,60,45,20,12,2,23,15,8,30.36,30.30,30.24,10,10,10,14,8,20,0.00,0,,1